GW5197 Weather Reports


time (UTC)temp
F
wind
direction
speed
knots
gust
knots
rain 1hr
in
rain 24hr
in
rain mn
in
humidity
%
barometer
mb
20260509124157 61 183 0.0 0.0 0.00 0.00 0.00 97 1012.0
20260509123657 61 101 0.0 0.0 0.00 0.00 0.00 97 1012.0
20260509123157 60 97 0.0 0.9 0.00 0.00 0.00 98 1012.0
20260509122657 60 157 0.0 0.9 0.00 0.00 0.00 98 1012.0
20260509122157 60 127 0.0 0.0 0.00 0.00 0.00 99 1012.0
20260509121658 60 41 0.9 1.7 0.00 0.00 0.00 98 1013.0
20260509121157 60 76 0.9 1.7 0.00 0.00 0.00 99 1012.0
20260509120657 60 87 0.9 0.9 0.00 0.00 0.00 99 1012.0
20260509120157 60 53 0.9 0.9 0.00 0.00 0.00 99 1012.0
20260509115658 60 57 0.0 0.0 0.00 0.00 0.00 100 1012.0
20260509115157 60 84 0.0 0.9 0.00 0.00 0.00 99 1012.0
20260509114657 60 74 0.9 0.9 0.00 0.00 0.00 99 1012.0
20260509114158 60 97 1.7 1.7 0.00 0.00 0.00 99 1012.0
20260509113658 60 101 0.0 0.0 0.00 0.00 0.00 99 1012.0
20260509113157 60 0 0.0 0.0 0.00 0.00 0.00 99 1012.0
20260509112658 60 229 0.0 0.9 0.00 0.00 0.00 98 1012.0
20260509112158 60 257 0.9 1.7 0.00 0.00 0.00 98 1012.0
20260509111657 60 286 0.9 0.9 0.00 0.00 0.00 98 1012.0
20260509111157 59 263 0.9 0.9 0.00 0.00 0.00 99 1012.0
20260509110658 59 83 0.9 0.9 0.00 0.00 0.00 99 1013.0
20260509110157 59 345 1.7 1.7 0.00 0.00 0.00 99 1013.0
20260509105657 60 80 0.9 1.7 0.00 0.00 0.00 98 1012.0
20260509105157 60 77 0.9 0.9 0.00 0.00 0.00 98 1012.0
20260509104700 60 97 0.0 0.9 0.00 0.00 0.00 98 1012.0
20260509104157 60 240 0.9 1.7 0.00 0.00 0.00 97 1012.0
20260509103659 60 295 0.9 0.9 0.00 0.00 0.00 97 1012.0
20260509103157 60 182 0.9 0.9 0.00 0.00 0.00 97 1012.0
20260509102657 60 55 0.9 1.7 0.00 0.00 0.00 96 1012.0
20260509102158 60 40 0.0 0.0 0.00 0.00 0.00 96 1012.0
20260509101658 60 209 0.0 0.0 0.00 0.00 0.00 96 1012.0
20260509101158 60 239 0.9 1.7 0.00 0.00 0.00 95 1012.0
20260509100214 60 131 0.0 0.9 0.00 0.00 0.00 95 1012.0
20260509095657 60 257 0.9 1.7 0.00 0.00 0.00 94 1013.0
20260509095157 60 189 0.0 0.0 0.00 0.00 0.00 94 1013.0
20260509094658 60 102 0.0 0.0 0.00 0.00 0.00 94 1013.0
20260509094159 60 256 0.9 0.9 0.00 0.00 0.00 94 1013.0
20260509093657 60 154 0.9 0.9 0.00 0.00 0.00 95 1012.0
20260509093158 60 170 0.0 0.9 0.00 0.00 0.00 95 1013.0
20260509092657 60 65 0.9 0.9 0.00 0.00 0.00 95 1013.0
20260509092157 60 64 0.9 1.7 0.00 0.00 0.00 95 1013.0
20260509091658 60 26 0.0 0.9 0.00 0.00 0.00 95 1012.0
20260509091157 60 92 0.9 0.9 0.00 0.00 0.00 95 1012.0
20260509090658 60 70 0.0 0.9 0.00 0.00 0.00 95 1012.0
20260509090157 60 73 0.9 1.7 0.00 0.00 0.00 95 1013.0
20260509085657 60 56 0.9 1.7 0.00 0.00 0.00 94 1012.0
20260509085157 60 88 0.0 0.9 0.00 0.00 0.00 94 1012.0
20260509084658 60 164 0.0 0.0 0.00 0.00 0.00 94 1012.0
20260509084158 60 279 0.0 0.0 0.00 0.00 0.00 95 1012.0
20260509083657 60 0 0.0 0.0 0.00 0.00 0.00 95 1012.0
20260509083158 60 230 0.9 0.9 0.00 0.00 0.00 95 1012.0
20260509082657 59 58 0.0 0.9 0.00 0.00 0.00 95 1012.0
20260509082157 59 27 0.0 0.9 0.00 0.00 0.00 95 1012.0
20260509081657 59 36 0.0 0.9 0.00 0.00 0.00 95 1012.0
20260509081157 59 244 0.0 0.9 0.00 0.00 0.00 95 1012.0
20260509080657 59 218 0.0 0.9 0.00 0.00 0.00 97 1012.0
20260509080157 58 0 0.0 0.0 0.00 0.00 0.00 99 1012.0
20260509075657 58 118 0.9 1.7 0.00 0.00 0.00 99 1012.0
20260509075157 58 0 0.0 0.0 0.00 0.00 0.00 100 1012.0
20260509074657 58 83 0.0 0.9 0.00 0.00 0.00 100 1012.0
20260509074157 58 0 0.0 0.0 0.00 0.00 0.00 100 1012.0
20260509073657 58 50 0.9 0.9 0.00 0.00 0.00 100 1012.0
20260509073157 58 342 0.9 0.9 0.00 0.00 0.00 99 1012.0
20260509072658 58 43 0.0 0.9 0.00 0.00 0.00 99 1012.0
20260509072157 58 17 0.0 0.0 0.00 0.00 0.00 99 1012.0
20260509071657 58 52 0.0 0.9 0.00 0.00 0.00 99 1012.0
20260509071157 58 50 0.9 0.9 0.00 0.00 0.00 98 1012.0
20260509070657 58 358 0.0 0.0 0.00 0.00 0.00 98 1012.0
20260509070157 58 74 0.0 0.9 0.00 0.00 0.00 98 1012.0
20260509065657 58 103 0.0 0.9 0.00 0.00 0.00 97 1012.0
20260509065157 59 90 0.0 0.9 0.00 0.00 0.00 97 1012.0
20260509064657 59 86 0.0 0.9 0.00 0.00 0.00 97 1012.0
20260509064158 59 0 0.0 0.0 0.00 0.00 0.00 96 1013.0
20260509063658 59 78 0.9 0.9 0.00 0.00 0.00 96 1013.0
20260509063157 59 84 0.9 0.9 0.00 0.00 0.00 96 1013.0
20260509062700 59 88 0.0 0.9 0.00 0.00 0.00 95 1013.0
20260509062157 59 33 0.0 0.9 0.00 0.00 0.00 95 1013.0
20260509061657 59 115 0.0 0.9 0.00 0.00 0.00 95 1013.0
20260509061157 59 99 0.0 0.9 0.00 0.00 0.00 95 1013.0
20260509060657 59 27 1.7 1.7 0.00 0.00 0.00 95 1013.0
20260509060157 59 0 0.0 0.0 0.00 0.00 0.00 96 1013.0
20260509055658 59 64 0.9 0.9 0.00 0.00 0.00 96 1014.0
20260509055158 59 0 0.0 0.0 0.00 0.00 0.00 96 1014.0
20260509054658 59 95 0.0 0.9 0.00 0.00 0.00 95 1014.0
20260509054157 58 0 0.0 0.0 0.00 0.00 0.00 96 1014.0
20260509053657 58 342 0.0 0.9 0.00 0.00 0.00 95 1014.0
20260509053157 58 117 0.0 0.9 0.00 0.00 0.00 96 1014.0
20260509052657 58 20 0.0 0.0 0.00 0.00 0.00 95 1014.0
20260509052158 58 87 0.9 1.7 0.00 0.00 0.00 95 1013.0
20260509051657 58 0 0.0 0.0 0.00 0.00 0.00 95 1014.0
20260509051157 58 108 0.9 0.9 0.00 0.00 0.00 94 1014.0
20260509050657 58 96 0.0 0.0 0.00 0.00 0.00 94 1014.0
20260509050157 58 313 0.0 0.0 0.00 0.00 0.00 94 1014.0
20260509045657 58 313 0.0 0.0 0.00 0.00 0.00 94 1014.0
20260509045157 58 0 0.0 0.0 0.00 0.00 0.00 94 1014.0
20260509044657 59 95 0.0 0.9 0.00 0.00 0.00 93 1014.0
20260509044158 58 124 0.9 0.9 0.00 0.00 0.00 93 1014.0
20260509043657 59 0 0.0 0.0 0.00 0.00 0.00 93 1014.0
20260509043157 59 21 0.9 0.9 0.00 0.00 0.00 93 1014.0
20260509042657 59 0 0.0 0.0 0.00 0.00 0.00 93 1014.0
20260509042157 59 74 0.0 0.0 0.00 0.00 0.00 92 1014.0
20260509041658 59 0 0.0 0.0 0.00 0.00 0.00 92 1014.0
20260509041157 59 97 0.0 0.9 0.00 0.00 0.00 91 1014.0
20260509040657 59 79 0.0 0.0 0.00 0.00 0.00 91 1014.0
20260509040158 59 349 0.0 0.0 0.00 0.00 0.00 90 1014.0
20260509035658 59 287 0.9 0.9 0.00 0.00 0.00 90 1014.0
20260509035158 59 5 0.0 0.9 0.00 0.00 0.00 89 1014.0
20260509034657 59 0 0.0 0.0 0.00 0.00 0.00 89 1014.0
20260509034159 60 359 0.0 0.0 0.00 0.00 0.00 89 1014.0
20260509033658 60 103 0.9 0.9 0.00 0.00 0.00 89 1014.0
20260509033157 60 118 0.9 1.7 0.00 0.00 0.00 88 1014.0
20260509032657 60 244 0.0 0.0 0.00 0.00 0.00 88 1015.0
20260509032157 60 98 0.0 0.9 0.00 0.00 0.00 87 1015.0
20260509031658 60 0 0.0 0.0 0.00 0.00 0.00 87 1015.0
20260509031157 61 0 0.0 0.0 0.00 0.00 0.00 86 1015.0
20260509030658 61 83 0.0 0.9 0.00 0.00 0.00 86 1015.0
20260509030157 61 78 0.9 1.7 0.00 0.00 0.00 85 1015.0
20260509025658 61 78 0.9 0.9 0.00 0.00 0.00 84 1015.0
20260509025157 62 31 0.9 0.9 0.00 0.00 0.00 83 1015.0
20260509024657 62 0 0.0 0.0 0.00 0.00 0.00 82 1015.0
20260509024157 62 117 0.0 0.9 0.00 0.00 0.00 82 1015.0
20260509023657 62 232 0.0 0.9 0.00 0.00 0.00 81 1015.0
20260509023158 62 103 0.0 0.0 0.00 0.00 0.00 80 1015.0
20260509022657 63 112 0.0 0.0 0.00 0.00 0.00 79 1015.0
20260509022157 63 0 0.0 0.0 0.00 0.00 0.00 79 1015.0
20260509021657 63 242 0.9 0.9 0.00 0.00 0.00 78 1015.0
20260509021157 63 299 0.9 1.7 0.00 0.00 0.00 79 1015.0
20260509020657 63 67 0.0 0.0 0.00 0.00 0.00 78 1015.0
20260509020157 63 143 0.0 0.0 0.00 0.00 0.00 78 1015.0
20260509015657 63 239 0.9 0.9 0.00 0.00 0.00 77 1015.0
20260509014708 64 206 0.9 0.9 0.00 0.00 0.00 77 1015.0
20260509014157 64 246 0.9 1.7 0.00 0.00 0.00 77 1015.0
20260509013658 64 248 0.0 0.9 0.00 0.00 0.00 77 1015.0
20260509013157 64 245 0.9 1.7 0.00 0.00 0.00 77 1015.0
20260509012657 64 301 1.7 1.7 0.00 0.00 0.00 76 1015.0
20260509012157 64 289 0.9 1.7 0.00 0.00 0.00 76 1014.0
20260509011657 64 267 1.7 2.6 0.00 0.00 0.00 76 1014.0
20260509011157 64 68 0.0 0.9 0.00 0.00 0.00 76 1014.0
20260509010658 64 231 0.9 1.7 0.00 0.00 0.00 76 1014.0
20260509010158 64 300 1.7 1.7 0.00 0.00 0.00 75 1015.0
20260509005657 64 280 0.9 0.9 0.00 0.00 0.00 76 1014.0
20260509005157 65 228 0.9 1.7 0.00 0.00 0.00 75 1014.0
20260509004657 65 300 1.7 1.7 0.00 0.00 0.00 74 1014.0
20260509004157 65 291 0.0 0.9 0.00 0.00 0.00 74 1014.0
20260509003657 65 245 0.9 0.9 0.00 0.00 0.00 74 1014.0
20260509003157 65 0 0.0 0.0 0.00 0.00 0.00 74 1014.0
20260509002657 65 0 0.0 0.0 0.00 0.00 0.00 74 1015.0
20260509002157 65 195 0.0 0.0 0.00 0.00 0.00 74 1014.0
20260509001658 66 136 0.0 0.0 0.00 0.00 0.00 73 1014.0
20260509001159 66 198 0.0 0.0 0.00 0.00 0.00 72 1014.0
20260509000657 66 49 0.0 0.9 0.00 0.00 0.00 71 1014.0
20260509000157 66 309 0.9 1.7 0.00 0.00 0.00 70 1014.0
20260508235657 66 257 0.0 0.0 0.00 0.00 0.00 70 1015.0
20260508235157 66 178 0.9 0.9 0.00 0.00 0.00 70 1014.0
20260508234658 66 251 0.0 0.9 0.00 0.00 0.00 69 1014.0
20260508234157 66 233 0.0 0.9 0.00 0.00 0.00 68 1014.0
20260508233657 67 231 0.0 0.9 0.00 0.00 0.00 67 1014.0
20260508233157 67 218 0.0 1.7 0.00 0.00 0.00 67 1014.0
20260508232657 67 222 0.9 1.7 0.00 0.00 0.00 66 1014.0
20260508232157 67 290 1.7 3.5 0.00 0.00 0.00 65 1014.0
20260508231658 67 240 1.7 1.7 0.00 0.00 0.00 64 1014.0
20260508231157 67 246 0.9 0.9 0.00 0.00 0.00 66 1014.0
20260508230657 67 329 0.9 1.7 0.00 0.00 0.00 68 1014.0
20260508230158 67 349 0.9 1.7 0.00 0.00 0.00 66 1014.0
20260508225657 68 275 0.9 1.7 0.00 0.00 0.00 64 1014.0
20260508225157 68 317 0.0 0.9 0.00 0.00 0.00 65 1014.0
20260508224657 68 309 0.9 2.6 0.00 0.00 0.00 65 1014.0
20260508224157 68 349 0.0 0.9 0.00 0.00 0.00 64 1014.0
20260508223657 68 302 0.9 1.7 0.00 0.00 0.00 65 1014.0
20260508223158 68 359 0.9 1.7 0.00 0.00 0.00 65 1014.0
20260508222700 68 232 0.9 1.7 0.00 0.00 0.00 63 1014.0
20260508222157 68 193 1.7 4.3 0.00 0.00 0.00 62 1014.0
20260508221658 68 221 0.0 0.9 0.00 0.00 0.00 62 1014.0
20260508221158 68 184 0.0 0.9 0.00 0.00 0.00 61 1014.0
20260508220657 68 238 0.9 0.9 0.00 0.00 0.00 62 1014.0
20260508220158 69 63 0.9 1.7 0.00 0.00 0.00 62 1014.0
20260508215657 69 208 0.0 0.9 0.00 0.00 0.00 60 1014.0
20260508215158 69 144 0.0 0.9 0.00 0.00 0.00 60 1014.0
20260508214657 69 39 0.0 0.9 0.00 0.00 0.00 60 1014.0
20260508214157 69 129 0.0 0.9 0.00 0.00 0.00 60 1014.0
20260508213658 69 144 0.9 0.9 0.00 0.00 0.00 60 1014.0
20260508213157 69 95 0.9 1.7 0.00 0.00 0.00 60 1014.0
20260508212658 69 326 1.7 3.5 0.00 0.00 0.00 60 1014.0
20260508212157 69 327 0.9 0.9 0.00 0.00 0.00 60 1014.0
20260508211657 69 100 0.0 0.9 0.00 0.00 0.00 58 1014.0
20260508211157 69 235 0.9 1.7 0.00 0.00 0.00 57 1014.0
20260508210657 69 0 0.0 0.9 0.00 0.00 0.00 60 1014.0
20260508210157 69 254 0.9 1.7 0.00 0.00 0.00 56 1014.0
20260508205658 69 109 0.0 1.7 0.00 0.00 0.00 54 1014.0
20260508205158 69 80 0.0 0.9 0.00 0.00 0.00 59 1014.0
20260508204658 69 327 0.9 1.7 0.00 0.00 0.00 55 1014.0
20260508204157 69 150 0.0 1.7 0.00 0.00 0.00 56 1014.0
20260508203208 69 326 0.9 1.7 0.00 0.00 0.00 54 1014.0
20260508202657 69 235 0.0 0.9 0.00 0.00 0.00 54 1014.0
20260508202157 69 128 0.0 1.7 0.00 0.00 0.00 54 1015.0
20260508201657 69 312 0.0 0.9 0.00 0.00 0.00 53 1015.0
20260508201157 70 301 0.0 0.9 0.00 0.00 0.00 52 1014.0
20260508200657 70 124 0.0 0.0 0.00 0.00 0.00 54 1014.0
20260508200157 70 285 0.0 0.9 0.00 0.00 0.00 52 1014.0
20260508195657 70 104 0.0 0.9 0.00 0.00 0.00 53 1014.0
20260508195158 69 187 0.0 0.9 0.00 0.00 0.00 52 1014.0
20260508194657 69 231 0.0 0.9 0.00 0.00 0.00 52 1015.0
20260508194157 69 158 1.7 1.7 0.00 0.00 0.00 53 1015.0
20260508193657 69 320 1.7 2.6 0.00 0.00 0.00 54 1015.0
20260508193157 70 315 1.7 3.5 0.00 0.00 0.00 55 1015.0
20260508192657 70 333 0.9 1.7 0.00 0.00 0.00 54 1015.0
20260508192200 70 53 1.7 2.6 0.00 0.00 0.00 52 1015.0
20260508191657 69 287 0.0 0.9 0.00 0.00 0.00 51 1015.0
20260508191158 69 261 1.7 3.5 0.00 0.00 0.00 51 1015.0
20260508190657 70 316 2.6 3.5 0.00 0.00 0.00 53 1015.0
20260508190157 70 241 0.9 1.7 0.00 0.00 0.00 48 1015.0
20260508185657 70 132 0.9 1.7 0.00 0.00 0.00 51 1015.0
20260508185202 69 78 0.0 1.7 0.00 0.00 0.00 51 1015.0
20260508184657 69 227 0.0 0.9 0.00 0.00 0.00 51 1016.0
20260508184157 69 359 0.9 2.6 0.00 0.00 0.00 51 1016.0
20260508183657 69 6 1.7 2.6 0.00 0.00 0.00 53 1016.0
20260508183157 69 263 2.6 2.6 0.00 0.00 0.00 52 1016.0
20260508182658 70 267 0.0 1.7 0.00 0.00 0.00 51 1016.0
20260508182158 70 13 0.9 2.6 0.00 0.00 0.00 52 1016.0
20260508181657 70 37 1.7 2.6 0.00 0.00 0.00 53 1016.0
20260508181157 69 18 0.9 1.7 0.00 0.00 0.00 52 1016.0
20260508180657 69 222 1.7 1.7 0.00 0.00 0.00 51 1016.0
20260508180157 69 258 1.7 1.7 0.00 0.00 0.00 50 1016.0
20260508175657 69 272 0.0 0.9 0.00 0.00 0.00 52 1016.0
20260508175157 68 350 0.9 0.9 0.00 0.00 0.00 54 1016.0
20260508174657 68 247 2.6 3.5 0.00 0.00 0.00 52 1016.0
20260508174158 68 324 1.7 2.6 0.00 0.00 0.00 56 1016.0
20260508173657 68 312 2.6 3.5 0.00 0.00 0.00 55 1016.0
20260508173157 68 344 1.7 3.5 0.00 0.00 0.00 56 1016.0
20260508172702 69 233 2.6 3.5 0.00 0.00 0.00 54 1016.0
20260508172158 67 27 2.6 3.5 0.00 0.00 0.00 57 1016.0
20260508171657 68 237 1.7 3.5 0.00 0.00 0.00 55 1017.0
20260508171158 67 48 0.9 0.9 0.00 0.00 0.00 58 1017.0
20260508170700 67 150 1.7 2.6 0.00 0.00 0.00 58 1017.0
20260508170157 67 194 0.9 1.7 0.00 0.00 0.00 58 1017.0
20260508165657 67 209 1.7 2.6 0.00 0.00 0.00 61 1017.0
20260508165158 67 322 0.9 1.7 0.00 0.00 0.00 57 1017.0
20260508164658 66 96 0.9 1.7 0.00 0.00 0.00 60 1017.0
20260508164159 65 322 1.7 1.7 0.00 0.00 0.00 62 1017.0
20260508163657 65 250 1.7 2.6 0.00 0.00 0.00 56 1017.0
20260508163158 66 245 1.7 1.7 0.00 0.00 0.00 59 1017.0
20260508162657 65 78 2.6 2.6 0.00 0.00 0.00 62 1017.0
20260508162159 65 42 0.0 0.9 0.00 0.00 0.00 62 1017.0
20260508161657 64 253 0.0 1.7 0.00 0.00 0.00 65 1017.0
20260508161157 64 232 2.6 3.5 0.00 0.00 0.00 63 1018.0
20260508160657 64 328 1.7 2.6 0.00 0.00 0.00 65 1018.0
20260508160157 64 10 1.7 2.6 0.00 0.00 0.00 65 1018.0
20260508155657 65 239 4.3 4.3 0.00 0.00 0.00 63 1018.0
20260508155201 65 247 0.0 0.9 0.00 0.00 0.00 62 1018.0
20260508154657 65 51 0.9 1.7 0.00 0.00 0.00 66 1018.0
20260508154157 64 260 1.7 2.6 0.00 0.00 0.00 64 1018.0
20260508153658 63 14 0.0 0.0 0.00 0.00 0.00 70 1018.0
20260508153157 63 242 2.6 2.6 0.00 0.00 0.00 69 1018.0
20260508152658 63 102 0.0 0.9 0.00 0.00 0.00 70 1018.0
20260508152158 63 254 1.7 1.7 0.00 0.00 0.00 70 1018.0
20260508151657 63 140 0.0 0.0 0.00 0.00 0.00 72 1018.0
20260508151157 63 13 1.7 1.7 0.00 0.00 0.00 73 1018.0
20260508150658 63 50 1.7 2.6 0.00 0.00 0.00 73 1018.0
20260508150157 62 41 1.7 2.6 0.00 0.00 0.00 74 1018.0
20260508145657 62 201 0.9 1.7 0.00 0.00 0.00 72 1018.0
20260508145159 63 49 0.0 0.9 0.00 0.00 0.00 73 1018.0
20260508144658 62 78 0.0 0.9 0.00 0.00 0.00 73 1018.0
20260508144158 62 80 1.7 2.6 0.00 0.00 0.00 75 1018.0
20260508143657 61 35 1.7 2.6 0.00 0.00 0.00 76 1018.0
20260508143159 61 158 0.9 0.9 0.00 0.00 0.00 76 1018.0
20260508142657 61 200 1.7 2.6 0.00 0.00 0.00 76 1018.0
20260508142157 61 257 0.0 0.0 0.00 0.00 0.00 78 1018.0
20260508141659 60 17 0.9 1.7 0.00 0.00 0.00 76 1018.0
20260508141157 60 39 0.0 0.0 0.00 0.00 0.00 81 1018.0
20260508140700 59 68 0.9 1.7 0.00 0.00 0.00 82 1018.0
20260508135713 58 76 1.7 2.6 0.00 0.00 0.00 89 1018.0
20260508135157 57 96 1.7 1.7 0.00 0.00 0.00 90 1018.0
20260508134657 56 39 0.0 0.9 0.00 0.00 0.00 92 1018.0
20260508134157 56 66 1.7 1.7 0.00 0.00 0.00 92 1018.0
20260508133657 56 59 0.9 1.7 0.00 0.00 0.00 95 1018.0
20260508133157 55 43 1.7 2.6 0.00 0.00 0.00 94 1018.0
20260508132657 55 83 1.7 1.7 0.00 0.00 0.00 96 1018.0
20260508132157 55 106 1.7 2.6 0.00 0.00 0.00 94 1018.0
20260508131222 54 66 1.7 1.7 0.00 0.00 0.00 98 1018.0
20260508130658 53 38 1.7 1.7 0.00 0.00 0.00 100 1018.0
20260508130202 53 69 1.7 1.7 0.00 0.00 0.00 100 1018.0
20260508125658 53 104 1.7 1.7 0.00 0.00 0.00 100 1018.0
20260508124718 52 48 1.7 2.6 0.00 0.00 0.00 99 1018.0